Thomson, GA

4:07 PM EDT on July 24, 2017 (GMT -0400)
Thomson-McDuffie County

Weather History for KHQU - March, 2014

Change the Weather History Date:

Friday, March 7, 2014

  Actual Average (KDNL) Record (KDNL)
Temperature  
Mean Temperature 42 °F -  
Max Temperature 50 °F 62 °F 81 °F (2009)
Min Temperature 34 °F 43 °F 31 °F (2013)
Degree Days  
Heating Degree Days 23    
Moisture  
Dew Point 41 °F    
Average Humidity 99    
Maximum Humidity 100    
Minimum Humidity 88    
Precipitation  
Precipitation 0.00 in - - ()
Sea Level Pressure  
Sea Level Pressure 30.00 in    
Wind  
Wind Speed 7 mph (North)    
Max Wind Speed 12 mph    
Max Gust Speed 20 mph    
Visibility 6 miles    
Events      
Averages and records for this station are not official NWS values.
T = Trace of Precipitation, MM = Missing Value Source: NWS Daily Summary

Daily Weather History Graph

Daily Weather History Graph

Search for Another Location

Airport or City:

Trip Planner

Search our weather history database for the weather conditions in past years. The results will help you decide how hot, cold, wet, or windy it might be!

Date:

Astronomy

Mar. 07, 2014 Rise Set
Actual Time 6:50 AM EST 6:31 PM EST
Civil Twilight 6:26 AM EST 6:56 PM EST
Nautical Twilight 5:57 AM EST 7:25 PM EST
Astronomical Twilight 5:28 AM EST 7:54 PM EST
Moon 11:00 AM EST (3/7) 12:18 AM EST (3/7)
Length of Visible Light 12h 30m
Length of Day
11h 40m
Waxing Crescent, 42% of the Moon is Illuminated
Mar 7
Waxing Crescent
Mar 8
First Quarter
Mar 16
Full
Mar 23
Last Quarter
Mar 30
New

Hourly Weather History & Observations

Time (EST) Temp. Windchill Dew Point Humidity Pressure Visibility Wind Dir Wind Speed Gust Speed Precip Events Conditions
12:15 AM 34.9 °F 27.1 °F 34.9 °F 100% 29.98 in 5.0 mi NNE 10.4 mph 16.1 mph N/A   Overcast
12:35 AM 35.1 °F 28.6 °F 35.1 °F 100% 29.97 in 4.0 mi NNE 8.1 mph - N/A   Overcast
12:55 AM 35.2 °F 30.3 °F 35.2 °F 100% 29.97 in 4.0 mi North 5.8 mph - N/A   Overcast
1:15 AM 35.6 °F 29.2 °F 35.6 °F 100% 29.97 in 4.0 mi NNE 8.1 mph - N/A   Overcast
1:35 AM 35.8 °F 28.3 °F 35.8 °F 100% 29.96 in 4.0 mi NNE 10.4 mph 17.3 mph N/A   Overcast
1:55 AM 36.1 °F 29.3 °F 36.1 °F 100% 29.96 in 7.0 mi NNE 9.2 mph 17.3 mph N/A   Overcast
2:15 AM 36.5 °F 29.7 °F 36.5 °F 100% 29.95 in 5.0 mi NNE 9.2 mph 18.4 mph N/A   Overcast
2:35 AM 36.5 °F 30.3 °F 36.5 °F 100% 29.94 in 3.0 mi NNE 8.1 mph 16.1 mph N/A   Overcast
2:50 AM 36.5 °F 29.7 °F 36.5 °F 100% 29.94 in 4.0 mi NNE 9.2 mph - N/A   Overcast
3:15 AM 36.5 °F 29.2 °F 36.5 °F 100% 29.93 in 7.0 mi NNE 10.4 mph 17.3 mph N/A   Overcast
3:35 AM 36.7 °F 30.5 °F 36.7 °F 100% 29.93 in 5.0 mi North 8.1 mph 16.1 mph N/A   Overcast
3:55 AM 36.9 °F 30.7 °F 36.9 °F 100% 29.93 in 3.0 mi NNE 8.1 mph 17.3 mph N/A   Overcast
4:15 AM 37.0 °F 30.4 °F 37.0 °F 100% 29.92 in 3.0 mi NNE 9.2 mph - N/A   Overcast
4:35 AM 37.4 °F 32.8 °F 37.4 °F 100% 29.92 in 4.0 mi NNE 5.8 mph - N/A   Overcast
4:55 AM 37.4 °F 30.3 °F 37.4 °F 100% 29.93 in 4.0 mi NNE 10.4 mph - N/A   Overcast
5:15 AM 37.8 °F 30.7 °F 37.8 °F 100% 29.93 in 4.0 mi NNE 10.4 mph 17.3 mph N/A   Overcast
5:35 AM 37.8 °F 30.2 °F 37.8 °F 100% 29.94 in 4.0 mi NNE 11.5 mph 16.1 mph N/A   Overcast
5:55 AM 37.9 °F 32.7 °F 37.9 °F 100% 29.94 in 5.0 mi NNE 6.9 mph - N/A   Overcast
6:15 AM 37.9 °F 30.5 °F 37.9 °F 100% 29.94 in 4.0 mi NNE 11.5 mph - N/A   Overcast
6:35 AM 37.8 °F 31.3 °F 37.8 °F 100% 29.95 in 3.0 mi North 9.2 mph - N/A   Overcast
6:55 AM 37.8 °F 32.5 °F 37.8 °F 100% 29.95 in 3.0 mi NNE 6.9 mph - N/A   Overcast
7:15 AM 37.8 °F 31.3 °F 37.8 °F 100% 29.96 in 2.5 mi North 9.2 mph - N/A   Overcast
7:35 AM 38.1 °F 33.7 °F 38.1 °F 100% 29.96 in 1.2 mi North 5.8 mph - N/A   Overcast
7:55 AM 38.5 °F 33.4 °F 38.5 °F 100% 29.97 in 1.2 mi North 6.9 mph - N/A   Overcast
8:15 AM 39.0 °F 34.0 °F 39.0 °F 100% 29.98 in 1.2 mi North 6.9 mph - N/A   Overcast
8:35 AM 39.4 °F 35.2 °F 39.4 °F 100% 29.98 in 1.8 mi North 5.8 mph - N/A   Overcast
8:55 AM 39.9 °F 35.1 °F 39.9 °F 100% 29.99 in 1.2 mi North 6.9 mph - N/A   Overcast
9:15 AM 40.3 °F 34.9 °F 40.3 °F 100% 30.00 in 1.8 mi North 8.1 mph - N/A   Overcast
9:35 AM 40.5 °F 34.6 °F 40.5 °F 100% 30.01 in 3.0 mi North 9.2 mph 18.4 mph N/A   Overcast
9:55 AM 40.8 °F 35.0 °F 40.8 °F 100% 30.01 in 1.8 mi North 9.2 mph 16.1 mph N/A   Overcast
10:15 AM 41.2 °F 36.0 °F 41.2 °F 100% 30.01 in 2.0 mi North 8.1 mph - N/A   Overcast
10:35 AM 41.5 °F 36.4 °F 41.5 °F 100% 30.01 in 2.5 mi North 8.1 mph 19.6 mph N/A   Overcast
10:55 AM 41.2 °F 36.0 °F 41.2 °F 100% 30.01 in 7.0 mi North 8.1 mph 19.6 mph N/A   Overcast
11:15 AM 41.4 °F 36.2 °F 41.4 °F 100% 30.01 in 10.0 mi North 8.1 mph - N/A   Overcast
11:35 AM 41.5 °F 35.0 °F 41.5 °F 100% 30.01 in 10.0 mi North 11.5 mph 16.1 mph N/A   Overcast
11:55 AM 41.5 °F 36.4 °F 41.5 °F 100% 30.01 in 7.0 mi North 8.1 mph - N/A   Overcast
12:15 PM 42.1 °F 36.6 °F 42.1 °F 100% 30.00 in 10.0 mi North 9.2 mph 16.1 mph N/A   Overcast
12:35 PM 42.6 °F 36.8 °F 42.6 °F 100% 30.00 in 10.0 mi North 10.4 mph - N/A   Overcast
12:55 PM 43.0 °F 37.7 °F 42.8 °F 99% 29.99 in 10.0 mi North 9.2 mph 16.1 mph N/A   Overcast
1:15 PM 43.7 °F 39.7 °F 43.2 °F 98% 29.99 in 10.0 mi North 6.9 mph 16.1 mph N/A   Overcast
1:35 PM 44.2 °F 39.2 °F 43.2 °F 96% 29.99 in 10.0 mi North 9.2 mph - N/A   Overcast
1:55 PM 45.1 °F 39.9 °F 44.1 °F 96% 29.98 in 10.0 mi NNW 10.4 mph 16.1 mph N/A   Overcast
2:15 PM 45.9 °F 41.7 °F 45.0 °F 97% 29.98 in 7.0 mi NNW 8.1 mph - N/A   Overcast
2:35 PM 47.3 °F - 45.9 °F 95% 29.98 in 7.0 mi North 5.8 mph - N/A   Overcast
2:55 PM 47.1 °F - 46.2 °F 97% 29.98 in 3.0 mi North 8.1 mph - N/A   Overcast
3:15 PM 47.5 °F - 46.6 °F 97% 29.99 in 10.0 mi North 3.5 mph - N/A   Overcast
3:35 PM 48.2 °F - 46.4 °F 93% 29.99 in 10.0 mi NNE 8.1 mph - N/A   Overcast
3:50 PM 48.4 °F - 46.2 °F 92% 29.99 in 10.0 mi NNE 5.8 mph - N/A   Overcast
4:15 PM 49.3 °F - 46.6 °F 90% 29.99 in 10.0 mi NNE 6.9 mph - N/A   Overcast
4:35 PM 49.6 °F - 46.6 °F 89% 29.99 in 10.0 mi NNE 6.9 mph - N/A   Mostly Cloudy
4:55 PM 50.2 °F - 46.8 °F 88% 29.99 in 10.0 mi NNE 4.6 mph - N/A   Scattered Clouds
5:15 PM 50.0 °F - 46.9 °F 89% 30.00 in 10.0 mi Calm Calm - N/A   Overcast
5:35 PM 50.0 °F - 47.3 °F 90% 30.00 in 10.0 mi Calm Calm - N/A   Overcast
5:55 PM 49.5 °F - 47.8 °F 94% 30.01 in 10.0 mi Calm Calm - N/A   Overcast
6:15 PM 48.6 °F - 47.5 °F 96% 30.02 in 10.0 mi Calm Calm - N/A   Mostly Cloudy
6:35 PM 47.3 °F - 47.3 °F 100% 30.03 in 10.0 mi Calm Calm - N/A   Overcast
6:55 PM 46.9 °F - 46.9 °F 100% 30.04 in 10.0 mi Calm Calm - N/A   Overcast
7:15 PM 46.6 °F - 46.6 °F 100% 30.04 in 10.0 mi Calm Calm - N/A   Overcast
7:35 PM 46.4 °F - 46.4 °F 100% 30.06 in 10.0 mi Calm Calm - N/A   Overcast
7:55 PM 45.5 °F - 45.5 °F 100% 30.06 in 10.0 mi Calm Calm - N/A   Scattered Clouds
8:15 PM 43.7 °F - 43.7 °F 100% 30.06 in 10.0 mi Calm Calm - N/A   Clear
8:35 PM 43.2 °F - 43.2 °F 100% 30.07 in 1.8 mi Calm Calm - N/A   Unknown
8:55 PM 41.9 °F - 41.9 °F 100% 30.08 in 1.0 mi Calm Calm - N/A   Unknown
9:15 PM 41.0 °F - 41.0 °F 100% 30.08 in 1.0 mi Calm Calm - N/A   Unknown
9:35 PM 40.1 °F - 40.1 °F 100% 30.08 in 2.5 mi Calm Calm - N/A   Clear
9:55 PM 38.7 °F - 38.7 °F 100% 30.09 in 1.0 mi Calm Calm - N/A   Mostly Cloudy
10:15 PM 39.0 °F - 39.0 °F 100% 30.09 in 1.2 mi Calm Calm - N/A   Unknown
10:35 PM 38.3 °F - 38.3 °F 100% 30.10 in 10.0 mi Calm Calm - N/A   Clear
10:55 PM 38.1 °F - 38.1 °F 100% 30.10 in 3.0 mi Calm Calm - N/A   Clear
11:15 PM 37.8 °F - 37.8 °F 100% 30.10 in 4.0 mi Calm Calm - N/A   Clear
11:35 PM 36.1 °F - 36.1 °F 100% 30.09 in 10.0 mi Calm Calm - N/A   Clear
11:55 PM 36.1 °F - 36.1 °F 100% 30.10 in 10.0 mi Calm Calm - N/A   Clear